Location: Mat�lon
(46.2791°N, 7.1028°E)
Time: 06:21:14
(UTC+00:00)

Terra - Pass Details

Date: 18 September 2020
Orbit: 701 x 703 km, 98.2° (Epoch: 23 October)

Event Time Altitude Azimuth Distance (km) Brightness Sun altitude
Exits shadow 21:58:06 18° 330° (NNW) 1,686 4.3 -38.6°
Drops below altitude 10° 21:59:25 10° 336° (NNW) 2,181 5.1 -38.7°
Sets 22:01:45 0° 342° (NNW) 3,104 6.0 -38.9°
